Toms River, NJ

11:14 PM EST on February 27, 2017 (GMT -0500)
Miller

Weather History for KMJX - April, 2014

Change the Weather History Date:

Friday, April 18, 2014

  Actual Average Record
Temperature  
Mean Temperature 42 °F -  
Max Temperature 46 °F 65 °F 89 °F (1976)
Min Temperature 37 °F 39 °F 24 °F (1983)
Degree Days  
Heating Degree Days 24    
Moisture  
Dew Point 31 °F    
Average Humidity 69    
Maximum Humidity 87    
Minimum Humidity 53    
Precipitation  
Precipitation 0.00 in - - ()
Sea Level Pressure  
Sea Level Pressure 30.45 in    
Wind  
Wind Speed 2 mph (ENE)    
Max Wind Speed 7 mph    
Max Gust Speed -    
Visibility 10 miles    
Events      
Averages and records for this station are not official NWS values.
T = Trace of Precipitation, MM = Missing Value Source: NWS Daily Summary

Daily Weather History Graph

Daily Weather History Graph

Search for Another Location

Airport or City:

Trip Planner

Search our weather history database for the weather conditions in past years. The results will help you decide how hot, cold, wet, or windy it might be!

Date:

Astronomy

Apr. 18, 2014 Rise Set
Actual Time 6:15 AM EDT 7:38 PM EDT
Civil Twilight 5:46 AM EDT 8:06 PM EDT
Nautical Twilight 5:12 AM EDT 8:40 PM EDT
Astronomical Twilight 4:37 AM EDT 9:16 PM EDT
Moon 11:21 PM EDT (4/18) 8:34 AM EDT (4/18)
Length of Visible Light 14h 20m
Length of Day
13h 23m
Waning Gibbous, 87% of the Moon is Illuminated
Apr 18
Waning Gibbous
Apr 22
Last Quarter
Apr 29
New
May 6
First Quarter
May 14
Full

Hourly Weather History & Observations

Time (EDT) Temp. Windchill Dew Point Humidity Pressure Visibility Wind Dir Wind Speed Gust Speed Precip Events Conditions
12:15 AM 39.2 °F 35.9 °F 30.2 °F 70% 30.60 in 10.0 mi East 4.6 mph - N/A   Overcast
12:35 AM 39.2 °F 35.9 °F 30.2 °F 70% 30.60 in 10.0 mi East 4.6 mph - N/A   Overcast
12:55 AM 39.2 °F - 28.4 °F 65% 30.60 in 10.0 mi Calm Calm - N/A   Overcast
1:15 AM 39.2 °F 37.0 °F 28.4 °F 65% 30.60 in 10.0 mi East 3.5 mph - N/A   Overcast
1:35 AM 39.2 °F - 28.4 °F 65% 30.62 in 10.0 mi Calm Calm - N/A   Overcast
1:55 AM 39.2 °F - 28.4 °F 65% 30.59 in 10.0 mi Calm Calm - N/A   Overcast
2:15 AM 39.2 °F - 28.4 °F 65% 30.58 in 10.0 mi Calm Calm - N/A   Overcast
2:35 AM 39.2 °F 37.0 °F 28.4 °F 65% 30.57 in 10.0 mi ENE 3.5 mph - N/A   Overcast
2:55 AM 39.2 °F - 28.4 °F 65% 30.55 in 10.0 mi Calm Calm - N/A   Overcast
3:15 AM 39.2 °F 35.9 °F 28.4 °F 65% 30.55 in 10.0 mi ENE 4.6 mph - N/A   Overcast
3:55 AM 39.2 °F - 30.2 °F 70% 30.53 in 10.0 mi Calm Calm - N/A   Overcast
4:15 AM 39.2 °F 37.0 °F 30.2 °F 70% 30.51 in 10.0 mi ENE 3.5 mph - N/A   Overcast
4:35 AM 39.2 °F - 28.4 °F 65% 30.50 in 10.0 mi Calm Calm - N/A   Overcast
4:55 AM 39.2 °F - 28.4 °F 65% 30.49 in 10.0 mi Calm Calm - N/A   Overcast
5:15 AM 39.2 °F 37.0 °F 30.2 °F 70% 30.50 in 10.0 mi NE 3.5 mph - N/A   Overcast
5:35 AM 39.2 °F 37.0 °F 30.2 °F 70% 30.49 in 10.0 mi ENE 3.5 mph - N/A   Overcast
5:55 AM 39.2 °F 34.2 °F 30.2 °F 70% 30.49 in 10.0 mi ENE 6.9 mph - N/A   Overcast
6:15 AM 39.2 °F 35.0 °F 28.4 °F 65% 30.50 in 10.0 mi NE 5.8 mph - N/A   Overcast
6:35 AM 39.2 °F 37.0 °F 28.4 °F 65% 30.51 in 10.0 mi ENE 3.5 mph - N/A   Overcast
6:55 AM 39.2 °F 35.0 °F 28.4 °F 65% 30.52 in 10.0 mi NE 5.8 mph - N/A   Overcast
7:15 AM 39.2 °F - 30.2 °F 70% 30.54 in 10.0 mi Calm Calm - N/A   Overcast
7:35 AM 39.2 °F - 30.2 °F 70% 30.54 in 10.0 mi Calm Calm - N/A   Overcast
7:55 AM 39.2 °F 37.0 °F 30.2 °F 70% 30.55 in 10.0 mi NE 3.5 mph - N/A   Overcast
8:15 AM 39.2 °F 35.0 °F 28.4 °F 65% 30.54 in 10.0 mi NNE 5.8 mph - N/A   Overcast
8:35 AM 39.2 °F 37.0 °F 30.2 °F 70% 30.54 in 10.0 mi NNE 3.5 mph - N/A   Overcast
8:55 AM 39.2 °F 37.0 °F 30.2 °F 70% 30.54 in 10.0 mi NE 3.5 mph - N/A   Overcast
9:15 AM 39.2 °F 35.9 °F 28.4 °F 65% 30.53 in 10.0 mi NE 4.6 mph - N/A   Overcast
9:35 AM 39.2 °F - 28.4 °F 65% 30.52 in 10.0 mi Calm Calm - N/A   Overcast
9:55 AM 39.2 °F 35.9 °F 30.2 °F 70% 30.51 in 10.0 mi ENE 4.6 mph - N/A   Overcast
10:15 AM 41.0 °F 37.1 °F 30.2 °F 65% 30.50 in 10.0 mi ENE 5.8 mph - N/A   Overcast
10:35 AM 41.0 °F 39.0 °F 32.0 °F 70% 30.51 in 10.0 mi ENE 3.5 mph - N/A   Overcast
10:55 AM 41.0 °F - 30.2 °F 65% 30.50 in 10.0 mi Calm Calm - N/A   Overcast
11:15 AM 41.0 °F - 30.2 °F 65% 30.50 in 10.0 mi Calm Calm - N/A   Overcast
11:35 AM 41.0 °F 37.1 °F 30.2 °F 65% 30.49 in 10.0 mi NNE 5.8 mph - N/A   Overcast
11:55 AM 41.0 °F 38.0 °F 30.2 °F 65% 30.48 in 10.0 mi NNE 4.6 mph - N/A   Overcast
12:15 PM 41.0 °F 39.0 °F 30.2 °F 65% 30.49 in 10.0 mi NNE 3.5 mph - N/A   Overcast
12:55 PM 42.8 °F 41.1 °F 30.2 °F 61% 30.48 in 10.0 mi East 3.5 mph - N/A   Overcast
1:15 PM 42.8 °F 41.1 °F 30.2 °F 61% 30.48 in 10.0 mi NE 3.5 mph - N/A   Overcast
1:35 PM 42.8 °F - 30.2 °F 61% 30.47 in 10.0 mi Calm Calm - N/A   Overcast
1:55 PM 44.6 °F - 32.0 °F 61% 30.46 in 10.0 mi Calm Calm - N/A   Mostly Cloudy
2:15 PM 44.6 °F 43.1 °F 30.2 °F 57% 30.45 in 10.0 mi NNE 3.5 mph - N/A   Mostly Cloudy
2:35 PM 44.6 °F 43.1 °F 30.2 °F 57% 30.43 in 10.0 mi East 3.5 mph - N/A   Partly Cloudy
2:55 PM 46.4 °F - 30.2 °F 53% 30.42 in 10.0 mi Calm Calm - N/A   Clear
3:15 PM 46.4 °F 44.3 °F 32.0 °F 57% 30.40 in 10.0 mi ESE 4.6 mph - N/A   Clear
3:35 PM 46.4 °F - 33.8 °F 62% 30.40 in 10.0 mi Calm Calm - N/A   Clear
3:55 PM 46.4 °F 45.2 °F 32.0 °F 57% 30.39 in 10.0 mi East 3.5 mph - N/A   Clear
4:15 PM 46.4 °F - 33.8 °F 62% 30.39 in 10.0 mi Calm Calm - N/A   Clear
4:35 PM 44.6 °F 43.1 °F 33.8 °F 66% 30.37 in 10.0 mi SE 3.5 mph - N/A   Clear
4:55 PM 44.6 °F 43.1 °F 32.0 °F 61% 30.38 in 10.0 mi SE 3.5 mph - N/A   Clear
5:15 PM 44.6 °F - 33.8 °F 66% 30.37 in 10.0 mi Calm Calm - N/A   Clear
5:35 PM 42.8 °F - 33.8 °F 70% 30.37 in 10.0 mi Calm Calm - N/A   Clear
5:55 PM 42.8 °F 41.1 °F 33.8 °F 70% 30.36 in 10.0 mi ESE 3.5 mph - N/A   Clear
6:15 PM 42.8 °F 41.1 °F 33.8 °F 70% 30.36 in 10.0 mi SE 3.5 mph - N/A   Clear
6:35 PM 42.8 °F - 33.8 °F 70% 30.35 in 10.0 mi Calm Calm - N/A   Clear
6:55 PM 42.8 °F - 33.8 °F 70% 30.34 in 10.0 mi Calm Calm - N/A   Clear
7:15 PM 41.0 °F - 32.0 °F 70% 30.34 in 10.0 mi Calm Calm - N/A   Clear
7:35 PM 41.0 °F - 32.0 °F 70% 30.33 in 10.0 mi Calm Calm - N/A   Clear
7:55 PM 39.2 °F - 33.8 °F 81% 30.32 in 10.0 mi Calm Calm - N/A   Clear
8:15 PM 39.2 °F - 32.0 °F 75% 30.33 in 10.0 mi Calm Calm - N/A   Clear
8:35 PM 39.2 °F - 32.0 °F 75% 30.33 in 10.0 mi Calm Calm - N/A   Clear
8:55 PM 39.2 °F - 33.8 °F 81% 30.32 in 10.0 mi Calm Calm - N/A   Clear
9:15 PM 37.4 °F - 33.8 °F 87% 30.31 in 10.0 mi Calm Calm - N/A   Clear
9:35 PM 39.2 °F - 32.0 °F 75% 30.31 in 10.0 mi Calm Calm - N/A   Clear
9:55 PM 37.4 °F 32.8 °F 32.0 °F 81% 30.33 in 10.0 mi WSW 5.8 mph - N/A   Clear
10:15 PM 37.4 °F 33.8 °F 32.0 °F 81% 30.33 in 10.0 mi SW 4.6 mph - N/A   Clear
10:35 PM 37.4 °F - 33.8 °F 87% 30.32 in 10.0 mi Calm Calm - N/A   Partly Cloudy
10:55 PM 37.4 °F - 33.8 °F 87% 30.31 in 10.0 mi Calm Calm - N/A   Clear
11:15 PM 37.4 °F - 33.8 °F 87% 30.29 in 10.0 mi Calm Calm - N/A   Clear
11:35 PM 37.4 °F 34.9 °F 33.8 °F 87% 30.30 in 10.0 mi SW 3.5 mph - N/A   Clear
11:55 PM 37.4 °F - 33.8 °F 87% 30.30 in 10.0 mi Calm Calm - N/A   Clear